| time (UTC) | temp F | wind direction | speed MPH | gust MPH | rain 1hr in | rain 24hr in | rain mn in | humidity % | barometer mb |
| 20260502163050 | 70 | 44 | 8.0 | 18.0 | 0.00 | 0.13 | 0.00 | 53 | 1022.1 |
| 20260502163046 | 70 | 49 | 7.0 | 16.0 | 0.00 | 0.13 | 0.00 | 54 | 1025.8 |
| 20260502161545 | 69 | 58 | 5.0 | 15.0 | 0.00 | 0.13 | 0.00 | 53 | 1022.1 |
| 20260502161534 | 69 | 58 | 5.0 | 15.0 | 0.00 | 0.13 | 0.00 | 53 | 1026.0 |
| 20260502151553 | 66 | 335 | 6.0 | 14.0 | 0.00 | 0.13 | 0.00 | 60 | 1021.8 |
| 20260502151530 | 66 | 339 | 5.0 | 11.0 | 0.00 | 0.13 | 0.00 | 61 | 1025.6 |
| 20260502123051 | 51 | 5 | 7.0 | 13.0 | 0.00 | 0.68 | 0.00 | 85 | 1019.9 |
| 20260502123049 | 51 | 340 | 6.0 | 13.0 | 0.00 | 0.68 | 0.00 | 85 | 1023.5 |
| 20260502121545 | 51 | 342 | 5.0 | 10.0 | 0.00 | 0.68 | 0.00 | 86 | 1019.7 |
| 20260502121541 | 51 | 360 | 5.0 | 10.0 | 0.00 | 0.68 | 0.00 | 86 | 1023.3 |
| 20260502114543 | 51 | 336 | 4.0 | 12.0 | 0.00 | 0.71 | 0.00 | 86 | 1019.2 |
| 20260502114535 | 51 | 334 | 5.0 | 12.0 | 0.00 | 0.71 | 0.00 | 87 | 1022.9 |
| 20260502113043 | 51 | 352 | 4.0 | 13.0 | 0.00 | 0.71 | 0.00 | 86 | 1019.1 |
| 20260502113034 | 51 | 355 | 4.0 | 10.0 | 0.00 | 0.71 | 0.00 | 87 | 1022.9 |
| 20260502111546 | 51 | 11 | 5.0 | 12.0 | 0.00 | 0.71 | 0.00 | 86 | 1019.1 |
| 20260502111533 | 51 | 355 | 6.0 | 11.0 | 0.00 | 0.71 | 0.00 | 87 | 1022.8 |
| 20260502110044 | 51 | 352 | 4.0 | 12.0 | 0.00 | 0.71 | 0.00 | 87 | 1019.0 |
| 20260502110030 | 51 | 9 | 5.0 | 12.0 | 0.00 | 0.71 | 0.00 | 87 | 1022.6 |
| 20260502104543 | 51 | 347 | 5.0 | 11.0 | 0.00 | 1.21 | 0.00 | 88 | 1018.8 |
| 20260502104532 | 51 | 355 | 5.0 | 11.0 | 0.00 | 1.22 | 0.00 | 88 | 1022.6 |
| 20260502103101 | 50 | 348 | 2.0 | 10.0 | 0.00 | 1.21 | 0.00 | 89 | 1018.7 |
| 20260502103026 | 50 | 360 | 4.0 | 10.0 | 0.00 | 1.22 | 0.00 | 89 | 1022.5 |
| 20260502101559 | 50 | 336 | 2.0 | 5.0 | 0.00 | 1.21 | 0.00 | 89 | 1018.8 |
| 20260502101524 | 50 | 336 | 2.0 | 5.0 | 0.00 | 1.22 | 0.00 | 90 | 1022.6 |
| 20260502100110 | 51 | 318 | 0.0 | 3.0 | 0.00 | 1.21 | 0.00 | 88 | 1018.8 |
| 20260502091516 | 51 | 325 | 2.0 | 6.0 | 0.00 | 1.53 | 0.00 | 88 | 1021.4 |
| 20260502090105 | 51 | 336 | 1.0 | 4.0 | 0.00 | 1.53 | 0.00 | 88 | 1017.7 |
| 20260502071502 | 53 | 337 | 4.0 | 12.0 | 0.00 | 1.91 | 0.00 | 86 | 1020.6 |
| 20260502070052 | 53 | 328 | 3.0 | 10.0 | 0.00 | 1.91 | 0.00 | 86 | 1017.0 |
| 20260502070001 | 53 | 346 | 2.0 | 10.0 | 0.00 | 1.91 | 0.00 | 86 | 1020.6 |
| 20260502064614 | 53 | 345 | 5.0 | 11.0 | 0.00 | 2.08 | 0.00 | 86 | 1020.7 |
| 20260502064553 | 53 | 348 | 2.0 | 11.0 | 0.00 | 2.08 | 0.00 | 85 | 1017.3 |
| 20260502063108 | 53 | 344 | 3.0 | 10.0 | 0.00 | 2.08 | 0.00 | 85 | 1020.9 |
| 20260502063045 | 53 | 15 | 3.0 | 10.0 | 0.00 | 2.08 | 0.00 | 85 | 1017.4 |
| 20260502061613 | 54 | 21 | 3.0 | 9.0 | 0.00 | 2.08 | 0.00 | 85 | 1020.7 |
| 20260502061555 | 54 | 21 | 2.0 | 9.0 | 0.00 | 2.08 | 0.00 | 84 | 1017.2 |
| 20260502060056 | 54 | 10 | 3.0 | 11.0 | 0.00 | 2.08 | 0.00 | 85 | 1020.9 |
| 20260502060043 | 54 | 5 | 3.0 | 13.0 | 0.00 | 2.08 | 0.00 | 85 | 1017.4 |
| 20260502054555 | 54 | 9 | 4.0 | 13.0 | 0.00 | 2.33 | 0.00 | 85 | 1020.9 |
| 20260502054550 | 54 | 34 | 5.0 | 13.0 | 0.00 | 2.33 | 0.00 | 84 | 1017.5 |
| 20260502053102 | 54 | 28 | 7.0 | 17.0 | 0.00 | 2.33 | 0.00 | 84 | 1020.9 |
| 20260502053052 | 54 | 10 | 7.0 | 17.0 | 0.00 | 2.33 | 0.00 | 84 | 1017.4 |
| 20260502051549 | 54 | 355 | 5.0 | 16.0 | 0.00 | 2.33 | 0.00 | 84 | 1020.6 |
| 20260502050046 | 55 | 23 | 6.0 | 15.0 | 0.00 | 2.33 | 0.00 | 84 | 1016.3 |
| 20260502044543 | 55 | 5 | 3.0 | 15.0 | 0.00 | 2.33 | 2.33 | 84 | 1020.7 |
| 20260502043047 | 55 | 55 | 5.0 | 17.0 | 0.00 | 2.33 | 2.33 | 84 | 1017.1 |
| 20260502043042 | 55 | 49 | 6.0 | 17.0 | 0.00 | 2.33 | 2.33 | 84 | 1020.6 |
| 20260502041550 | 55 | 36 | 8.0 | 19.0 | 0.00 | 2.33 | 2.33 | 84 | 1016.8 |
| 20260502041543 | 55 | 24 | 7.0 | 19.0 | 0.00 | 2.33 | 2.33 | 85 | 1020.3 |
| 20260502040044 | 55 | 321 | 6.0 | 20.0 | 0.00 | 2.33 | 2.33 | 85 | 1017.0 |
| 20260502040040 | 55 | 330 | 7.0 | 19.0 | 0.00 | 2.33 | 2.33 | 85 | 1020.6 |
| 20260502034546 | 55 | 339 | 8.0 | 17.0 | 0.00 | 2.33 | 2.33 | 84 | 1016.9 |
| 20260502034543 | 55 | 348 | 10.0 | 17.0 | 0.00 | 2.33 | 2.33 | 85 | 1020.4 |
| 20260502033048 | 55 | 11 | 7.0 | 19.0 | 0.00 | 2.33 | 2.33 | 84 | 1016.8 |
| 20260502033037 | 55 | 15 | 7.0 | 19.0 | 0.00 | 2.33 | 2.33 | 85 | 1020.1 |
| 20260502031550 | 55 | 40 | 7.0 | 16.0 | 0.00 | 2.33 | 2.33 | 84 | 1016.5 |
| 20260502031535 | 55 | 24 | 9.0 | 16.0 | 0.00 | 2.33 | 2.33 | 85 | 1019.8 |
| 20260502030050 | 55 | 33 | 5.0 | 17.0 | 0.00 | 2.33 | 2.33 | 84 | 1016.4 |
| 20260502030031 | 55 | 33 | 5.0 | 17.0 | 0.00 | 2.33 | 2.33 | 85 | 1019.7 |
| 20260502024545 | 55 | 328 | 6.0 | 16.0 | 0.00 | 2.33 | 2.33 | 84 | 1016.0 |
| 20260502024528 | 55 | 328 | 6.0 | 16.0 | 0.00 | 2.33 | 2.33 | 85 | 1019.0 |
| 20260502023044 | 55 | 29 | 10.0 | 20.0 | 0.00 | 2.33 | 2.33 | 83 | 1015.9 |
| 20260502023026 | 55 | 12 | 11.0 | 20.0 | 0.00 | 2.33 | 2.33 | 84 | 1019.2 |
| 20260502021552 | 56 | 29 | 7.0 | 19.0 | 0.00 | 2.33 | 2.33 | 84 | 1015.5 |
| 20260502021522 | 56 | 53 | 7.0 | 17.0 | 0.00 | 2.33 | 2.33 | 84 | 1018.7 |
| 20260502020118 | 57 | 14 | 10.0 | 19.0 | 0.00 | 2.33 | 2.33 | 84 | 1018.4 |
| 20260502020042 | 57 | 53 | 9.0 | 19.0 | 0.00 | 2.33 | 2.33 | 84 | 1015.1 |
| 20260502014542 | 57 | 5 | 8.0 | 17.0 | 0.00 | 2.33 | 2.33 | 85 | 1014.8 |
| 20260502014514 | 57 | 329 | 7.0 | 17.0 | 0.00 | 2.33 | 2.33 | 86 | 1018.0 |
| 20260502013045 | 58 | 326 | 10.0 | 23.0 | 0.00 | 2.33 | 2.33 | 85 | 1014.4 |
| 20260502013014 | 58 | 23 | 9.0 | 23.0 | 0.00 | 2.33 | 2.33 | 86 | 1017.8 |
| 20260502011543 | 58 | 5 | 8.0 | 19.0 | 0.00 | 2.33 | 2.33 | 85 | 1014.4 |
| 20260502011509 | 58 | 30 | 8.0 | 18.0 | 0.00 | 2.33 | 2.33 | 86 | 1017.7 |
| 20260502010048 | 59 | 49 | 6.0 | 19.0 | 0.00 | 2.33 | 2.33 | 85 | 1013.9 |
| 20260502010004 | 59 | 9 | 6.0 | 19.0 | 0.00 | 2.33 | 2.33 | 85 | 1017.2 |
| 20260502004541 | 59 | 22 | 7.0 | 20.0 | 0.00 | 2.33 | 2.33 | 85 | 1013.8 |
| 20260502004502 | 59 | 355 | 6.0 | 20.0 | 0.00 | 2.33 | 2.33 | 85 | 1017.0 |
| 20260502003106 | 60 | 48 | 5.0 | 15.0 | 0.00 | 2.33 | 2.33 | 86 | 1016.7 |
| 20260502003045 | 60 | 326 | 6.0 | 15.0 | 0.00 | 2.33 | 2.33 | 85 | 1013.5 |
| 20260502001700 | 60 | 21 | 8.0 | 17.0 | 0.00 | 2.33 | 2.33 | 85 | 1016.3 |
| 20260502001543 | 60 | 47 | 8.0 | 16.0 | 0.00 | 2.33 | 2.33 | 84 | 1013.1 |
| 20260502000058 | 60 | 44 | 7.0 | 21.0 | 0.00 | 2.33 | 2.33 | 85 | 1015.8 |
| 20260502000045 | 60 | 26 | 9.0 | 21.0 | 0.00 | 2.33 | 2.33 | 84 | 1013.0 |
| 20260501234559 | 61 | 340 | 10.0 | 24.0 | 0.00 | 2.33 | 2.33 | 84 | 1015.3 |
| 20260501234546 | 61 | 344 | 10.0 | 24.0 | 0.00 | 2.33 | 2.33 | 83 | 1012.5 |
| 20260501233058 | 62 | 348 | 7.0 | 26.0 | 0.00 | 2.33 | 2.33 | 84 | 1015.1 |
| 20260501233046 | 62 | 18 | 9.0 | 26.0 | 0.00 | 2.33 | 2.33 | 83 | 1012.4 |
| 20260501231559 | 62 | 360 | 9.0 | 23.0 | 0.00 | 2.33 | 2.33 | 83 | 1015.0 |
| 20260501231546 | 62 | 341 | 9.0 | 23.0 | 0.00 | 2.33 | 2.33 | 82 | 1012.1 |
| 20260501230101 | 62 | 360 | 9.0 | 19.0 | 0.00 | 2.33 | 2.33 | 83 | 1014.4 |
| 20260501230056 | 62 | 31 | 9.0 | 19.0 | 0.00 | 2.33 | 2.33 | 83 | 1011.4 |
| 20260501224554 | 63 | 51 | 11.0 | 23.0 | 0.00 | 2.33 | 2.33 | 84 | 1014.4 |
| 20260501224551 | 63 | 26 | 10.0 | 23.0 | 0.00 | 2.33 | 2.33 | 83 | 1011.3 |
| 20260501223102 | 63 | 332 | 11.0 | 25.0 | 0.00 | 2.33 | 2.33 | 84 | 1014.6 |
| 20260501223051 | 63 | 5 | 11.0 | 25.0 | 0.00 | 2.33 | 2.33 | 83 | 1011.7 |
| 20260501221553 | 62 | 334 | 8.0 | 22.0 | 0.00 | 2.33 | 2.33 | 86 | 1014.6 |
| 20260501221541 | 62 | 344 | 7.0 | 22.0 | 0.00 | 2.33 | 2.33 | 85 | 1011.6 |
| 20260501220054 | 62 | 334 | 8.0 | 19.0 | 0.00 | 2.33 | 2.33 | 86 | 1014.8 |
| 20260501220047 | 62 | 338 | 8.0 | 19.0 | 0.00 | 2.33 | 2.33 | 85 | 1011.8 |
| 20260501214557 | 63 | 19 | 7.0 | 20.0 | 0.00 | 2.33 | 2.33 | 86 | 1014.6 |
| 20260501214554 | 63 | 351 | 6.0 | 20.0 | 0.00 | 2.33 | 2.33 | 86 | 1011.7 |
| 20260501213056 | 63 | 319 | 11.0 | 25.0 | 0.00 | 2.33 | 2.33 | 86 | 1014.2 |
| 20260501213043 | 63 | 350 | 9.0 | 25.0 | 0.00 | 2.33 | 2.33 | 86 | 1011.2 |
| 20260501211558 | 63 | 322 | 9.0 | 21.0 | 0.00 | 2.33 | 2.33 | 87 | 1014.0 |
| 20260501211544 | 63 | 335 | 9.0 | 21.0 | 0.00 | 2.33 | 2.33 | 86 | 1011.1 |
| 20260501210050 | 64 | 103 | 4.0 | 21.0 | 0.00 | 2.33 | 2.33 | 88 | 1014.2 |
| 20260501210048 | 64 | 0 | 5.0 | 21.0 | 0.00 | 2.33 | 2.33 | 88 | 1011.3 |
| 20260501204618 | 64 | 355 | 7.0 | 22.0 | 0.00 | 2.33 | 2.33 | 89 | 1014.1 |
| 20260501204615 | 64 | 327 | 8.0 | 22.0 | 0.00 | 2.33 | 2.33 | 88 | 1011.2 |
| 20260501203048 | 65 | 335 | 8.0 | 18.0 | 0.00 | 2.33 | 2.33 | 89 | 1014.4 |
| 20260501203043 | 65 | 346 | 6.0 | 18.0 | 0.00 | 2.33 | 2.33 | 88 | 1011.4 |
| 20260501201548 | 65 | 5 | 5.0 | 17.0 | 0.00 | 2.33 | 2.33 | 88 | 1014.2 |
| 20260501201543 | 65 | 306 | 5.0 | 19.0 | 0.00 | 2.33 | 2.33 | 88 | 1011.4 |
| 20260501200047 | 66 | 360 | 8.0 | 13.0 | 0.00 | 2.33 | 2.33 | 85 | 1013.8 |
| 20260501200043 | 66 | 325 | 6.0 | 13.0 | 0.00 | 2.33 | 2.33 | 84 | 1011.1 |
| 20260501194647 | 67 | 9 | 6.0 | 15.0 | 0.00 | 2.33 | 2.33 | 83 | 1013.7 |
| 20260501194550 | 67 | 24 | 8.0 | 18.0 | 0.00 | 2.33 | 2.33 | 83 | 1010.6 |
| 20260501193046 | 67 | 28 | 8.0 | 17.0 | 0.00 | 2.33 | 2.33 | 84 | 1012.9 |
| 20260501193044 | 67 | 5 | 8.0 | 17.0 | 0.00 | 2.33 | 2.33 | 84 | 1009.6 |
| 20260501191545 | 66 | 39 | 10.0 | 18.0 | 0.00 | 2.33 | 2.33 | 91 | 1012.4 |
| 20260501191541 | 66 | 5 | 9.0 | 18.0 | 0.00 | 2.33 | 2.33 | 91 | 1009.2 |
| 20260501190044 | 65 | 39 | 6.0 | 18.0 | 0.00 | 2.33 | 2.33 | 94 | 1012.8 |
| 20260501190042 | 65 | 29 | 5.0 | 16.0 | 0.00 | 2.33 | 2.33 | 94 | 1009.5 |
| 20260501184545 | 64 | 28 | 8.0 | 19.0 | 0.00 | 2.33 | 2.33 | 97 | 1009.9 |
| 20260501183052 | 64 | 15 | 11.0 | 20.0 | 0.00 | 2.33 | 2.33 | 97 | 1010.8 |
| 20260501183045 | 64 | 331 | 10.0 | 20.0 | 0.00 | 2.33 | 2.33 | 97 | 1013.9 |
| 20260501181555 | 62 | 5 | 6.0 | 16.0 | 0.00 | 2.33 | 2.33 | 97 | 1011.2 |
| 20260501181549 | 62 | 19 | 4.0 | 16.0 | 0.00 | 2.33 | 2.33 | 98 | 1014.1 |
| 20260501180059 | 61 | 17 | 5.0 | 13.0 | 0.01 | 2.33 | 2.33 | 96 | 1011.6 |
| 20260501180042 | 61 | 19 | 5.0 | 12.0 | 0.01 | 2.33 | 2.33 | 97 | 1014.4 |
| 20260501174547 | 61 | 337 | 5.0 | 13.0 | 0.03 | 2.33 | 2.33 | 96 | 1011.4 |
| 20260501174544 | 61 | 5 | 4.0 | 11.0 | 0.02 | 2.33 | 2.33 | 97 | 1014.1 |
| 20260501173055 | 61 | 352 | 8.0 | 17.0 | 0.04 | 2.33 | 2.33 | 96 | 1011.3 |
| 20260501173045 | 61 | 355 | 7.0 | 17.0 | 0.04 | 2.33 | 2.33 | 97 | 1014.1 |
| 20260501171545 | 62 | 340 | 7.0 | 16.0 | 0.13 | 2.33 | 2.33 | 96 | 1011.4 |
| 20260501171540 | 62 | 322 | 8.0 | 16.0 | 0.13 | 2.33 | 2.33 | 97 | 1014.1 |
| 20260501170044 | 62 | 334 | 7.0 | 14.0 | 0.12 | 2.32 | 2.32 | 96 | 1011.1 |
| 20260501164553 | 62 | 62 | 3.0 | 12.0 | 0.10 | 2.30 | 2.30 | 96 | 1010.7 |
| 20260501164549 | 62 | 29 | 3.0 | 12.0 | 0.10 | 2.29 | 2.29 | 97 | 1013.5 |